Theta_e
351 350 352 355 357 357 355 355 356 352 351 353 351 349 349 347 345 343 342 343 343 343 343 343 344 345 348 348 348 349 352 353 354 354 354 353 351 349 347 346 345 344
349 349 351 354 356 358 358 354 352 349 347 347 345 342 341 341 341 341 341 341 341 341 341 342 343 344 344 345 343 342 343 346 348 349 349 350 350 349 349 348 347 346
350 349 349 350 351 354 357 354 351 351 348 343 341 340 340 341 341 340 340 340 340 340 340 341 342 342 343 343 341 340 339 340 341 343 344 346 347 348 348 348 348 347
349 348 348 347 347 349 353 353 351 350 345 340 339 340 340 340 339 339 339 340 340 339 339 340 341 342 343 343 342 341 341 340 339 340 343 345 347 349 350 349 349 349
348 348 348 345 344 346 347 346 344 342 339 337 338 339 339 339 339 339 340 339 339 338 338 338 339 340 341 342 342 343 344 343 342 343 344 345 347 349 350 350 350 349
347 348 347 345 344 346 346 344 342 339 337 337 338 339 339 339 340 340 339 339 338 338 338 338 338 339 340 341 342 343 343 343 343 343 343 344 345 347 348 348 348 348
347 346 346 346 347 346 346 345 342 338 336 337 338 339 339 340 340 340 340 340 339 338 338 339 339 341 341 342 342 343 343 344 344 344 344 344 345 345 345 346 347 348
352 351 348 347 348 348 347 345 342 339 338 339 339 340 340 340 341 341 341 340 340 339 339 339 340 342 342 342 342 342 343 344 344 344 345 345 345 346 346 346 347 347
355 354 350 347 348 348 348 346 343 340 340 340 341 342 342 342 342 342 341 340 340 339 338 338 338 339 340 341 341 343 344 345 345 345 345 345 346 346 346 346 346 346
357 355 350 347 347 349 349 348 345 342 342 342 344 344 345 345 345 344 342 340 339 339 338 338 338 339 340 341 342 344 345 346 347 347 347 347 347 348 347 347 346 346
356 354 349 345 345 346 347 347 346 345 346 347 347 347 347 347 347 346 345 343 341 342 341 340 340 340 342 343 343 344 344 345 346 348 349 349 349 349 349 349 349 348
354 351 348 346 345 346 346 346 348 348 349 349 348 348 349 349 349 348 347 345 344 344 344 343 342 343 343 343 344 344 344 344 345 347 349 350 350 350 350 350 350 350
353 349 348 347 347 348 348 350 351 351 351 351 351 352 351 351 351 349 348 346 345 345 345 345 345 345 346 346 346 346 346 347 347 348 349 350 350 351 350 350 350 350
353 351 350 349 349 350 351 352 352 351 351 352 353 354 354 352 351 350 348 347 346 346 346 346 346 346 347 347 348 348 348 349 349 350 350 350 350 350 351 350 350 349
357 354 353 353 353 353 354 353 352 352 352 353 353 353 353 352 350 349 349 348 348 348 347 348 347 347 347 348 348 348 348 349 349 349 350 349 349 350 350 350 350 348
356 353 353 354 354 355 355 355 354 353 352 352 351 351 351 350 350 349 350 349 349 349 349 348 348 348 348 348 348 347 347 347 348 347 348 348 349 349 349 349 349 348
355 353 354 354 355 355 354 354 353 352 351 351 351 350 350 350 349 349 349 349 349 349 348 348 348 348 348 347 347 346 346 346 346 346 347 347 347 348 347 348 347 347
354 353 354 352 352 353 352 351 351 351 351 350 350 350 350 349 349 348 349 348 348 348 347 347 347 346 346 346 346 345 345 345 345 345 346 346 346 347 346 346 346 346
351 352 352 351 352 351 350 351 350 350 350 350 350 349 348 348 347 347 346 346 346 346 346 346 345 345 345 345 345 344 344 344 344 344 345 345 345 345 345 346 346 346
351 351 351 351 351 349 349 349 349 349 349 348 348 348 346 346 346 345 345 344 344 344 345 345 345 344 344 344 344 344 344 344 343 343 344 344 344 345 345 345 345 345
350 350 350 350 349 348 348 348 347 348 347 346 346 346 345 345 344 344 344 343 343 343 343 344 344 343 343 343 343 343 343 342 342 342 343 344 344 344 344 344 345 345
349 349 348 348 347 346 346 345 345 345 345 344 345 344 344 344 343 343 343 343 343 343 343 343 343 343 343 343 343 342 342 342 342 341 343 343 343 344 344 344 345 345
347 346 345 345 344 344 344 343 343 343 343 343 343 343 343 343 342 343 342 342 342 342 342 343 343 343 342 342 342 342 341 341 341 342 343 343 343 343 343 344 344 344
344 343 343 342 342 342 342 342 342 342 342 341 341 342 342 341 342 342 341 341 341 341 341 342 342 342 341 341 341 340 340 340 340 341 342 343 343 343 343 343 343 343
341 341 341 341 341 341 340 341 340 340 340 340 340 340 340 340 340 340 340 340 340 340 340 341 341 341 340 340 340 340 340 340 340 341 342 342 342 342 342 343 343 343
339 339 339 339 339 339 339 339 339 339 339 339 339 339 339 339 339 339 339 339 339 339 340 340 340 340 340 340 340 340 340 340 340 341 342 342 342 342 342 342 342 342
Wind_Speed
16 18 17 16 15 14 13 11 10 12 14 16 16 15 16 14 13 11 10 11 12 13 16 17 17 18 19 19 20 21 20 20 21 20 20 21 22 22 22 22 23 23
18 16 14 14 15 17 18 14 13 14 13 13 12 11 12 11 11 10 8 8 10 12 15 15 17 17 18 19 19 20 20 20 21 20 20 21 20 20 21 21 22 22
18 15 13 13 14 17 20 18 14 13 12 11 11 12 13 11 10 9 9 10 12 14 15 15 16 17 17 18 19 20 20 20 21 21 21 22 20 20 21 20 21 21
15 13 12 12 12 14 18 17 14 13 12 11 11 12 13 12 12 12 12 12 13 14 15 16 17 17 17 18 18 19 20 20 21 21 20 21 20 21 21 21 22 21
12 13 14 14 14 13 14 14 12 11 11 12 12 12 12 13 12 11 12 12 13 14 15 16 17 16 16 17 17 17 18 19 19 20 20 21 20 20 20 20 20 20
11 14 17 18 17 15 14 13 12 11 12 12 12 12 11 10 10 11 13 14 15 16 16 16 17 17 17 17 18 19 19 19 19 20 21 21 20 20 20 19 19 19
10 10 11 16 17 16 15 13 12 13 13 12 12 12 11 12 14 15 15 16 17 17 17 18 18 18 17 17 18 19 19 21 21 21 22 22 22 22 22 21 20 19
12 9 6 13 16 14 14 13 13 14 14 14 13 13 14 15 17 17 17 18 18 17 17 17 17 17 17 18 19 20 21 21 21 22 23 23 22 22 21 21 21 21
13 11 9 11 14 14 14 14 14 15 15 14 14 14 15 16 17 18 19 19 18 17 17 19 20 21 22 22 23 23 23 23 23 23 24 24 23 22 21 21 20 21
12 12 12 12 13 15 15 15 16 16 16 17 16 17 17 17 19 19 20 20 19 19 20 22 23 23 24 25 24 23 23 23 24 24 25 24 24 23 22 22 22 22
12 13 15 15 15 16 16 16 17 18 18 18 18 18 19 20 22 22 22 22 22 23 23 22 22 22 22 23 23 23 23 24 25 25 25 25 25 25 24 23 23 23
14 14 16 17 17 17 17 18 18 19 19 20 20 21 20 21 22 23 24 24 24 25 24 23 24 23 23 24 24 25 25 26 26 26 26 26 26 25 25 24 24 24
14 15 16 17 18 19 19 20 20 21 22 23 23 23 22 23 23 25 25 25 25 26 25 26 27 26 26 25 25 26 25 26 26 25 25 25 25 25 25 25 25 24
13 14 14 15 17 18 19 20 21 22 23 23 23 22 23 23 23 24 24 24 25 25 26 27 26 26 26 25 25 25 25 25 25 25 25 25 25 25 25 25 25 24
12 13 15 15 16 17 18 20 21 21 22 22 22 23 23 23 23 24 23 24 25 25 26 26 26 26 26 25 24 23 23 23 23 24 24 24 25 25 24 24 23 23
13 15 16 17 17 18 19 19 20 21 21 22 22 23 23 23 23 23 24 25 26 26 26 25 25 25 24 24 24 24 24 24 23 24 24 24 23 23 23 23 23 23
12 13 14 15 16 17 18 19 20 20 21 22 22 22 23 23 23 24 25 25 25 25 24 24 24 24 24 24 24 24 25 25 25 24 25 24 24 23 23 23 23 23
11 12 13 14 16 17 18 19 20 21 22 23 23 23 24 24 24 25 25 24 24 24 24 24 24 24 24 25 24 24 25 26 26 25 24 24 23 23 23 23 23 23
12 13 14 15 17 18 19 20 20 21 22 22 22 23 24 24 24 24 25 24 24 24 25 25 24 24 25 25 25 25 25 25 26 26 25 24 24 23 23 23 24 24
14 15 16 17 17 18 19 20 20 21 21 22 22 23 23 24 24 24 24 24 24 24 25 25 24 24 25 25 25 25 24 25 26 26 26 25 25 25 25 25 25 25
14 15 16 17 17 17 18 19 20 21 21 21 21 22 22 23 23 24 24 23 23 24 24 25 25 24 24 24 24 24 24 24 25 26 26 26 26 26 26 27 27 27
13 14 15 16 17 17 18 18 19 20 20 20 21 21 22 23 23 23 23 23 23 23 23 24 24 24 24 24 24 24 24 25 26 25 25 25 26 26 26 28 28 28
14 15 16 17 18 18 18 19 19 20 20 21 21 21 21 22 23 23 23 24 24 24 24 24 24 23 24 25 25 25 24 24 25 24 23 24 25 26 27 28 29 29
16 17 17 18 18 18 19 20 20 20 21 20 21 21 21 22 23 24 24 24 24 24 24 24 23 23 23 24 25 25 25 25 25 24 24 25 25 26 27 28 29 29
16 17 18 18 19 19 20 20 20 21 21 21 22 22 23 23 24 24 24 24 24 24 23 23 23 23 23 23 24 24 25 25 24 23 23 23 24 25 26 26 27 28
17 18 18 19 20 20 20 21 21 21 21 21 22 22 22 23 23 23 24 24 24 24 24 23 23 23 23 22 22 23 23 23 23 22 22 23 24 24 24 25 25 25
Wind_Direction
208 211 210 212 214 218 233 229 222 237 236 237 248 249 247 252 256 264 274 272 274 282 283 283 285 285 282 275 271 269 265 262 262 264 268 268 268 270 270 267 267 267
215 217 211 210 211 212 221 221 226 244 248 248 261 269 266 265 260 261 271 278 282 286 287 287 287 288 289 287 285 283 280 274 268 266 266 265 266 269 270 270 269 269
215 220 216 215 217 213 215 217 221 233 242 248 255 258 257 256 258 263 277 283 281 279 280 282 282 283 285 284 283 284 284 282 277 274 270 267 268 272 273 274 274 272
215 222 223 221 225 220 214 215 219 223 234 248 253 255 256 261 271 278 278 273 272 274 276 276 274 275 275 272 271 272 274 275 276 277 273 267 264 266 269 270 270 271
214 216 225 231 234 227 217 220 230 239 250 261 266 268 268 268 268 267 267 270 276 280 280 278 276 277 279 280 279 278 279 280 280 280 275 269 264 263 265 266 267 269
215 221 227 228 228 219 211 219 236 249 255 261 269 276 282 284 280 273 273 279 282 283 281 281 281 281 282 284 286 288 290 291 291 290 286 281 275 272 271 271 271 272
242 249 224 207 207 207 208 221 243 251 254 261 270 281 288 288 284 278 276 277 276 276 277 277 277 276 276 278 282 286 287 287 286 286 285 282 278 273 271 271 272 274
249 265 228 196 201 211 217 229 245 247 251 260 267 275 279 280 279 275 273 272 271 272 274 277 278 277 278 280 282 283 283 283 282 279 278 277 275 272 269 269 269 269
238 246 238 213 210 221 227 234 245 249 256 267 272 273 273 274 274 273 272 271 272 276 278 280 279 277 276 276 276 276 276 277 278 276 275 274 273 274 272 271 269 268
231 235 238 230 222 226 231 238 247 253 261 268 271 270 267 268 271 273 275 275 277 280 280 278 275 272 271 269 268 268 268 270 273 273 271 269 269 270 271 271 270 269
229 232 237 237 235 235 237 242 248 253 258 264 268 269 265 265 267 269 271 273 275 276 276 276 277 276 274 270 268 268 269 269 270 270 268 267 266 266 267 267 266 266
231 233 235 236 238 240 243 247 252 255 260 266 271 271 267 266 266 267 266 266 267 269 271 276 280 280 278 276 274 272 271 270 268 266 265 265 265 265 265 263 262 262
237 239 239 239 240 243 246 250 253 258 263 268 270 268 266 266 266 265 263 263 264 267 270 275 278 279 277 274 273 270 268 268 267 265 264 264 265 265 265 264 262 261
243 248 250 250 250 250 252 255 258 262 265 266 266 266 266 267 266 266 265 265 267 268 270 273 275 275 274 273 271 269 266 265 265 265 266 265 265 266 266 266 265 264
248 256 260 263 265 265 266 268 269 269 269 268 268 267 267 268 267 267 268 269 270 271 272 273 273 272 271 270 269 268 266 265 265 266 267 266 267 268 268 268 269 270
258 264 265 266 268 270 270 271 271 272 272 271 270 269 268 268 268 268 269 270 272 272 272 272 271 270 268 267 267 267 267 266 266 266 268 269 269 270 271 271 271 271
264 268 268 266 267 269 269 271 273 273 273 273 272 271 270 270 270 271 271 271 272 273 273 272 270 270 269 269 268 268 267 266 265 266 267 269 269 269 270 271 271 270
267 269 270 269 270 271 271 273 274 273 274 274 273 273 273 273 273 273 274 274 275 274 273 272 271 271 271 272 271 270 268 266 265 265 266 266 267 267 267 269 270 271
273 273 272 272 273 275 277 278 279 278 279 280 280 280 281 279 277 276 276 276 276 275 274 273 273 273 273 274 274 273 270 268 267 265 264 265 266 266 267 267 268 269
278 278 278 280 282 284 286 287 287 287 287 288 289 288 287 285 283 281 280 278 276 276 276 275 275 275 275 276 276 274 272 270 269 267 265 264 265 265 266 266 265 265
284 287 289 291 293 294 295 295 294 293 293 293 293 293 292 291 290 288 285 283 280 278 277 277 277 277 278 277 276 276 275 273 271 268 265 264 264 265 265 265 264 263
297 301 303 303 302 301 300 299 298 298 299 300 299 298 296 294 292 290 288 285 283 280 278 277 277 277 278 279 279 278 278 276 273 269 266 264 265 265 265 264 263 262
312 310 308 305 303 303 302 301 302 301 302 303 301 299 297 295 293 291 289 287 285 282 280 278 277 278 279 281 281 279 278 277 274 269 267 266 265 266 266 265 263 262
311 308 306 305 304 305 304 304 304 303 303 302 300 299 298 297 295 292 290 288 286 284 282 281 280 281 282 280 279 279 279 277 274 270 267 267 268 269 269 268 266 265
314 313 312 312 310 308 306 306 305 303 302 301 300 299 299 297 295 294 292 291 290 288 287 286 285 285 285 283 282 282 280 278 274 269 267 269 272 273 272 271 270 269
318 316 314 312 309 308 307 305 304 302 302 302 301 300 299 298 297 297 295 295 294 292 290 289 287 287 287 286 285 283 282 281 277 272 271 273 275 275 275 275 273 271